Volver al catálogo

FENGYUN 1C DEB

ActivoSSO
NORAD 32352·DEBRIS·🇨🇳 China

Lanzado May 10, 1999 desde Taiyuan Satellite Launch Center

Loading…

Próximos Pases (próximas 24 horas)

TLE

ActualizadoSource: Space-Track

Época: Sep 12, 2026, 00:39 UTC

1 32352U 99025CYV 26255.02749651  .00000652  00000-0  19596-3 0  9990
2 32352  98.7856 187.8097 0122308  77.4252 284.0583 14.41941401692076

Sigue FENGYUN 1C DEB en tiempo real con AllMySat

Download on the App Store